When you browse on this site, cookies collect data to enhance your experience and personalize the content and advertising you see.
Visit our Privacy Policy to learn more. By continuing to use the site, you agree to this use of cookies and data.
  • In United Kingdom
  • List of Countries
  • For 7 days
  • Water Temperature
  • Weather Map
  • Weather Widgets
  • user-avatar
    Login

    Hourly Weather Hamilton

    Today, 1 June, Monday

    Time Temperature Precipitation Wind Pressure Humidity
    00:00 +12°C° 0 mm 1 mps 758 mmHg 89%
    01:00 +11°C° 0 mm 1 mps 758 mmHg 89%
    02:00 +11°C° 0 mm 1 mps 758 mmHg 90%
    03:00 +10°C° 0 mm 1 mps 758 mmHg 90%
    04:00 +11°C° 0 mm 1 mps 758 mmHg 87%
    05:00 +12°C° 0 mm 1 mps 759 mmHg 84%
    06:00 +13°C° 0 mm 1 mps 759 mmHg 83%
    07:00 +15°C° 0 mm 1 mps 759 mmHg 76%
    08:00 +18°C° 0 mm 1 mps 759 mmHg 68%
    09:00 +20°C° 0 mm 1 mps 759 mmHg 61%
    10:00 +19°C° 0 mm 0 mps 759 mmHg 58%
    11:00 +20°C° 0 mm 0 mps 759 mmHg 54%
    12:00 +23°C° 0 mm 1 mps 759 mmHg 50%
    13:00 +23°C° 0 mm 1 mps 759 mmHg 50%
    14:00 +23°C° 0 mm 1 mps 758 mmHg 51%
    15:00 +23°C° 0 mm 2 mps 758 mmHg 51%
    16:00 +23°C° 0 mm 2 mps 758 mmHg 57%
    17:00 +21°C° 0 mm 2 mps 758 mmHg 62%
    18:00 +20°C° 0 mm 2 mps 757 mmHg 68%
    19:00 +19°C° 0 mm 1 mps 758 mmHg 72%
    20:00 +18°C° 0 mm 1 mps 758 mmHg 76%
    21:00 +15°C° 0 mm 1 mps 758 mmHg 79%
    22:00 +14°C° 0 mm 1 mps 758 mmHg 80%
    23:00 +14°C° 0 mm 1 mps 757 mmHg 81%

    Tomorrow, 2 June, Tuesday

    Time Temperature Precipitation Wind Pressure Humidity
    00:00 +12°C° 0 mm 0 mps 757 mmHg 81%
    01:00 +12°C° 0 mm 0 mps 757 mmHg 81%
    02:00 +12°C° 0 mm 0 mps 757 mmHg 81%
    03:00 +11°C° 0 mm 0 mps 756 mmHg 81%
    04:00 +13°C° 0 mm 1 mps 756 mmHg 79%
    05:00 +14°C° 0 mm 1 mps 756 mmHg 78%
    06:00 +15°C° 0 mm 1 mps 756 mmHg 76%
    07:00 +16°C° 0 mm 1 mps 755 mmHg 71%
    08:00 +18°C° 0 mm 2 mps 755 mmHg 66%
    09:00 +19°C° 0 mm 2 mps 755 mmHg 61%
    10:00 +20°C° 0.1 mm 3 mps 755 mmHg 61%
    11:00 +20°C° 0.1 mm 3 mps 754 mmHg 62%
    12:00 +21°C° 0.1 mm 4 mps 754 mmHg 63%
    13:00 +20°C° 0.3 mm 4 mps 753 mmHg 63%
    14:00 +20°C° 0.3 mm 4 mps 753 mmHg 64%
    15:00 +20°C° 0.3 mm 4 mps 752 mmHg 64%
    16:00 +19°C° 0.2 mm 3 mps 752 mmHg 68%
    17:00 +18°C° 0.2 mm 3 mps 752 mmHg 71%
    18:00 +17°C° 0.2 mm 3 mps 751 mmHg 74%
    19:00 +16°C° 0.1 mm 3 mps 751 mmHg 79%
    20:00 +13°C° 0.1 mm 3 mps 751 mmHg 84%
    21:00 +13°C° 0.1 mm 2 mps 751 mmHg 90%
    22:00 +12°C° 1.1 mm 3 mps 751 mmHg 91%
    23:00 +11°C° 1.1 mm 3 mps 751 mmHg 93%

    Day after tomorrow, 3 June, Wednesday

    Time Temperature Precipitation Wind Pressure Humidity
    00:00 +11°C° 1.1 mm 4 mps 751 mmHg 94%
    01:00 +10°C° 0.7 mm 4 mps 750 mmHg 93%
    02:00 +10°C° 0.7 mm 4 mps 750 mmHg 92%
    03:00 +8°C° 0.7 mm 4 mps 750 mmHg 91%
    04:00 +8°C° 0 mm 4 mps 750 mmHg 89%
    05:00 +7°C° 0 mm 5 mps 750 mmHg 86%
    06:00 +7°C° 0 mm 5 mps 750 mmHg 84%
    07:00 +8°C° 0 mm 5 mps 751 mmHg 77%
    08:00 +9°C° 0 mm 5 mps 751 mmHg 71%
    09:00 +12°C° 0 mm 5 mps 751 mmHg 64%
    10:00 +12°C° 0 mm 5 mps 751 mmHg 66%
    11:00 +12°C° 0 mm 4 mps 751 mmHg 67%
    12:00 +13°C° 0 mm 4 mps 751 mmHg 69%
    13:00 +13°C° 0.1 mm 4 mps 750 mmHg 70%
    14:00 +13°C° 0.1 mm 3 mps 750 mmHg 71%
    15:00 +13°C° 0.1 mm 3 mps 750 mmHg 71%
    16:00 +12°C° 0.1 mm 3 mps 750 mmHg 73%
    17:00 +13°C° 0.1 mm 2 mps 750 mmHg 75%
    18:00 +12°C° 0.1 mm 2 mps 750 mmHg 77%
    19:00 +12°C° 0 mm 2 mps 750 mmHg 78%
    20:00 +11°C° 0 mm 1 mps 749 mmHg 79%
    21:00 +10°C° 0 mm 1 mps 749 mmHg 80%
    22:00 +9°C° 0 mm 1 mps 749 mmHg 80%
    23:00 +9°C° 0 mm 1 mps 749 mmHg 81%

    4 June, Thursday

    Time Temperature Precipitation Wind Pressure Humidity
    00:00 +8°C° 0 mm 1 mps 749 mmHg 82%
    01:00 +8°C° 0 mm 1 mps 748 mmHg 80%
    02:00 +8°C° 0 mm 1 mps 747 mmHg 79%
    03:00 +7°C° 0 mm 0 mps 746 mmHg 78%
    04:00 +9°C° 0 mm 1 mps 746 mmHg 78%
    05:00 +9°C° 0 mm 1 mps 745 mmHg 79%
    06:00 +9°C° 0 mm 1 mps 744 mmHg 80%
    07:00 +10°C° 0 mm 1 mps 744 mmHg 78%
    08:00 +10°C° 0 mm 2 mps 744 mmHg 77%
    09:00 +10°C° 0 mm 2 mps 744 mmHg 76%
    10:00 +12°C° 0.3 mm 2 mps 743 mmHg 76%
    11:00 +11°C° 0.3 mm 3 mps 743 mmHg 76%
    12:00 +12°C° 0.3 mm 3 mps 743 mmHg 76%
    13:00 +12°C° 0.2 mm 3 mps 743 mmHg 73%
    14:00 +13°C° 0.2 mm 4 mps 742 mmHg 69%
    15:00 +13°C° 0.2 mm 4 mps 742 mmHg 65%
    16:00 +13°C° 0.1 mm 4 mps 742 mmHg 65%
    17:00 +12°C° 0.1 mm 4 mps 742 mmHg 64%
    18:00 +12°C° 0.1 mm 4 mps 742 mmHg 64%
    19:00 +10°C° 0 mm 3 mps 742 mmHg 69%
    20:00 +9°C° 0 mm 2 mps 743 mmHg 74%
    21:00 +8°C° 0 mm 1 mps 743 mmHg 79%
    22:00 +7°C° 0 mm 1 mps 743 mmHg 80%
    23:00 +7°C° 0 mm 1 mps 742 mmHg 81%

    5 June, Friday

    Time Temperature Precipitation Wind Pressure Humidity
    00:00 +6°C° 0 mm 1 mps 742 mmHg 81%
    01:00 +5°C° 0 mm 1 mps 742 mmHg 83%
    02:00 +5°C° 0 mm 1 mps 742 mmHg 84%
    03:00 +3°C° 0 mm 0 mps 742 mmHg 85%
    04:00 +5°C° 0 mm 1 mps 742 mmHg 82%
    05:00 +7°C° 0 mm 1 mps 741 mmHg 79%
    06:00 +8°C° 0 mm 1 mps 741 mmHg 76%
    07:00 +9°C° 0 mm 1 mps 741 mmHg 71%
    08:00 +10°C° 0 mm 2 mps 741 mmHg 66%
    09:00 +11°C° 0 mm 3 mps 740 mmHg 60%
    10:00 +12°C° 0 mm 3 mps 740 mmHg 59%
    11:00 +12°C° 0 mm 3 mps 740 mmHg 57%
    12:00 +13°C° 0 mm 3 mps 740 mmHg 55%
    13:00 +13°C° 0.1 mm 3 mps 739 mmHg 57%
    14:00 +13°C° 0.1 mm 3 mps 739 mmHg 60%
    15:00 +13°C° 0.1 mm 3 mps 738 mmHg 62%
    16:00 +12°C° 0.1 mm 3 mps 738 mmHg 64%
    17:00 +12°C° 0.1 mm 3 mps 738 mmHg 66%
    18:00 +13°C° 0.1 mm 2 mps 738 mmHg 68%
    19:00 +10°C° 0.1 mm 2 mps 739 mmHg 71%
    20:00 +9°C° 0.1 mm 2 mps 739 mmHg 74%
    21:00 +8°C° 0.1 mm 2 mps 739 mmHg 77%
    22:00 +7°C° 0 mm 2 mps 739 mmHg 76%
    23:00 +6°C° 0 mm 2 mps 740 mmHg 76%

    6 June, Saturday

    Time Temperature Precipitation Wind Pressure Humidity
    00:00 +5°C° 0 mm 2 mps 740 mmHg 76%
    01:00 +4°C° 0 mm 3 mps 740 mmHg 78%
    02:00 +3°C° 0 mm 3 mps 740 mmHg 81%
    03:00 +2°C° 0 mm 3 mps 740 mmHg 83%
    04:00 +3°C° 0 mm 4 mps 740 mmHg 81%
    05:00 +4°C° 0 mm 4 mps 740 mmHg 79%
    06:00 +5°C° 0 mm 5 mps 740 mmHg 77%
    07:00 +5°C° 0 mm 6 mps 739 mmHg 70%
    08:00 +6°C° 0 mm 7 mps 739 mmHg 62%
    09:00 +7°C° 0 mm 8 mps 739 mmHg 54%
    10:00 +7°C° 0 mm 8 mps 739 mmHg 56%
    11:00 +7°C° 0 mm 9 mps 739 mmHg 57%
    12:00 +7°C° 0 mm 9 mps 738 mmHg 58%
    13:00 +6°C° 0.1 mm 9 mps 738 mmHg 61%
    14:00 +6°C° 0.1 mm 9 mps 738 mmHg 63%
    15:00 +6°C° 0.1 mm 9 mps 738 mmHg 66%
    16:00 +6°C° 0.1 mm 9 mps 738 mmHg 68%
    17:00 +5°C° 0.1 mm 9 mps 738 mmHg 71%
    18:00 +5°C° 0.1 mm 8 mps 738 mmHg 73%
    19:00 +4°C° 0.1 mm 8 mps 738 mmHg 74%
    20:00 +4°C° 0.1 mm 7 mps 738 mmHg 74%
    21:00 +4°C° 0.1 mm 7 mps 738 mmHg 75%
    22:00 +4°C° 0 mm 7 mps 738 mmHg 76%
    23:00 +4°C° 0 mm 7 mps 738 mmHg 77%
    Show more